SL-12 DEB, 43527

Orbit data source: Space-Track

SL-12 DEB, 43527 is space debris in HEO originally from a launch on Mon, 01 Mar 2010 UTC launched from the Tyuratam Missile And Space Complex (TTMTR). Debris objects in space refer to the collection of defunct objects orbiting the Earth. Examples of debris include non-operational satellites, rocket bodies, and fragments generated from explosions, collisions, or faulty payload assembly.

Loading next visibility...
Identifier
43527, 2010-007Z
Orbit
HEO
Country
Flag of CISCIS
Related business
Manufacturer
RKKE
Mission
Spacecraft
Bus & Motor
Unknown
Mass
Unknown
Launch date (UTC)
2010-03-01 (16 years ago)
Launch vehicle
Unknown
Launch site
Tyuratam Missile And Space Complex (TTMTR)
Object type
Payload
Rocket body
Debris
Shape & HBR
Unknown shape, 0.6 m
Radar Cross Section
Medium (>0.1 m² and <1 m²)

Expand to show TLE details & history
Last TLE update: 20 hours ago

TLE from 20 hours ago
0 SL-12 DEB
1 43527U 10007Z   26033.53921921  .00000110  00000-0  89781-3 0  9993
2 43527  65.0191 232.8618 5591128 301.8236  15.5601  4.26495687118222
Epoch: 2026-02-02T12:56Z
TLE epoch observation values (Epoch: 2026-02-02T12:56:28.539Z)
Latitude
Longitude
-93.96336°
Altitude
2,159.328 km
Speed
8.281 km/s
True Right ascension
15h 31m 33s
True Declination
0° 00' 00"
Sunlit
Object was in daylight at epoch
Visualization orbit readout
Latitude
Unknown
Longitude
Unknown
Altitude
Unknown
Speed
Unknown
Apparent Right ascension
Unknown
Apparent Declination
Unknown
Sunlit
N/A
Visualization observer readout
Local Sidereal Time
11:15:17
Azimuth
Unknown
Elevation
Unknown
Doppler factor
Unknown
Orbital elements
Apogee altitude
18,662.169 km
Perigee altitude
702.781 km
Semi-major axis
16,060.612 km
Eccentricity
0.55911
Inclination
65.0191°
RAAN
232.8618°
Arg. of periapsis
301.8236°
True anomaly
58.26044°
Mean anomaly
15.5601°
Eccentric anomaly
33.01413°
Mean motion
1.06635 °/min
Orbital period
337.6 mins
BSTAR
0.00089781
Loading maneuver chart data...
Computing Atmospheric mass density...
Loading historical data...
Loading historical data...
Loading historical data...
Loading historical data...
Loading historical data...
Loading historical data...
Loading historical data...

Documentation

Showing up to 5 results
|